Regional Weather Roundup
Issued by NWS Midland/Odessa, TX

Home | Current Version | Previous Version | Text Only | Print | Product List | Glossary On
Versions: 1 2 3 4 5 6 7 8 9 10 11 12 13 14 15 16 17 18 19 20 21 22 23 24 25 26 27 28 29 30 31 32 33 34 35 36 37 38 39 40 41 42 43 44 45 46 47 48 49 50
000
ASUS44 KMAF 280310
RWRMAF
MIDLAND AREA WEATHER ROUNDUP
NATIONAL WEATHER SERVICE MIDLAND TX
1000 PM CDT TUE JUN 27 2017

...IN SOUTHWEST TEXAS AND SOUTHEAST NEW MEXICO...

CITY           SKY/WX    TMP DP  RH WIND       PRES   REMARKS
ALPINE         CLEAR     78  55  44 SE7       30.11R
ANDREWS        FAIR      78  59  51 SE7       29.97R
ARTESIA        CLEAR     84  54  34 SE14      29.92R
BIG SPRING     CLEAR     81  62  52 SE10      29.97S
CARLSBAD       CLEAR     84  55  36 SE10      29.90R
DRYDEN           N/A     84  61  45 SE12      29.93R
FORT STOCKTON  CLEAR     83  61  47 SE15G25   29.95R
GUAD PASS      NOT AVBL
HOBBS          CLEAR     77  54  44 SE9       29.99S
MARFA          CLEAR     74  56  53 SE6       30.09R
MIDLAND AIRPK  CLEAR     85  59  41 SE10      29.95S
MIDLAND INTL   CLEAR     83  61  47 SE14      29.94S
ODESSA         CLEAR     84  57  39 SE13      29.95S
PECOS          CLEAR     86  52  30 E8        29.90R
PRESIDIO       FAIR      87  57  35 NE8       29.93R
SEMINOLE       CLEAR     76  60  57 SE5       29.98S
SNYDER         CLEAR     80  62  54 SE8       29.96S
WINK           CLEAR     85  55  35 SE7       29.91R
$$
...OTHER STATIONS IN TEXAS...

CITY           SKY/WX    TMP DP  RH WIND       PRES   REMARKS
ABILENE        CLEAR     79  66  64 SE10      29.95R
AMARILLO       NOT AVBL
AUSTIN         PTCLDY    73  71  93 CALM      29.95R
BROWNSVILLE    PTCLDY    79  75  87 E3        29.89R
CORPUS CHRISTI MOCLDY    84  73  69 E9        29.89R
DALLAS FTW     PTCLDY    80  75  84 E8        29.92S
DEL RIO        CLEAR     82  68  62 E8        29.91R
EL PASO        PTCLDY    90  52  27 SE9       29.92S
HOUSTON INT    MOCLDY    78  72  81 SE9       29.94F
LUBBOCK        MOCLDY    79  58  48 S13       29.96S
SAN ANGELO     CLEAR     81  62  52 SE9       29.94R
SAN ANTONIO    MOCLDY    74  68  81 E7        29.96R
WACO           CLEAR     80  72  76 S15       29.95R
WICHITA FALLS  NOT AVBL
$$
...OTHER LOCATIONS IN NEW MEXICO...

CITY           SKY/WX    TMP DP  RH WIND       PRES   REMARKS
ALAMOGORDO     PTCLDY    84  45  24 NE6       29.95F
ALBUQUERQUE    PTCLDY    80  41  24 S21G33    29.96S
CANNON AFB     CLEAR     77  54  44 S17       29.97R
CLOVIS         NOT AVBL
HOLLOMAN AFB   MOCLDY    84  47  27 E8        29.95F
ROSWELL        CLEAR     86  49  27 S14       29.91R
RUIDOSO        CLOUDY    66  45  45 N3        30.18R
SANTA FE       CLEAR     77  41  27 SW10      30.02R
TRUTH OR CONSE MOCLDY    76  53  44 W9        29.98F
TUCUMCARI      CLEAR     86  46  24 S22       29.85R
$$




USA.gov is the U.S. government's official web portal to all federal, state and local government web resources and services.